Location: The Saddle
(36.8333°N, 80.3417°W)
Time: 22:16:42
(UTC-05:00)

Tiros 1 despin weight - Visible Passes

Search period start: 30 November 2023 00:00
Search period end: 10 December 2023 00:00
Orbit: 583 x 628 km, 48.2° (Epoch: 28 November)

Date Brightness Start Highest point End Pass type
(mag) Time Alt. Az. Time Alt. Az. Time Alt. Az.
30 Nov ? 17:52:53 10° SSE 17:54:38 12° SE 17:56:23 10° ESE visible
30 Nov ? 19:30:58 10° SW 19:33:27 33° SW 19:33:27 33° SW visible
01 Dec ? 18:03:09 10° S 18:06:41 24° SE 18:08:48 17° E visible
01 Dec ? 19:43:24 10° WSW 19:45:37 28° W 19:45:37 28° W visible
02 Dec ? 18:14:38 10° SSW 18:18:49 47° SE 18:20:54 26° E visible
02 Dec ? 19:56:08 10° W 19:57:42 20° W 19:57:42 20° W visible
03 Dec ? 18:26:41 10° SW 18:31:02 88° SSE 18:32:55 33° NE visible
03 Dec ? 20:09:04 10° WNW 20:09:43 13° WNW 20:09:43 13° WNW visible
04 Dec ? 18:39:07 10° WSW 18:43:23 53° NNW 18:44:52 35° NNE visible
05 Dec ? 18:51:51 10° W 18:55:50 34° NNW 18:56:44 31° N visible
06 Dec ? 19:04:46 10° WNW 19:08:22 25° NNW 19:08:33 25° NNW visible
07 Dec ? 17:34:44 10° WSW 17:38:59 50° NNW 17:43:14 10° NE visible
07 Dec ? 19:17:44 10° WNW 19:20:20 19° NNW 19:20:20 19° NNW visible
08 Dec ? 17:47:28 10° W 17:51:25 32° NNW 17:55:17 10° NE visible
08 Dec ? 19:30:36 10° NW 19:32:04 15° NNW 19:32:04 15° NNW visible
09 Dec ? 18:00:22 10° WNW 18:03:56 24° NNW 18:07:00 12° NE visible
09 Dec ? 19:43:14 10° NW 19:43:47 12° NW 19:43:47 12° NW visible
